Airfield :
LOGIN :

Register | Disclaimer

   EN    FR    IT 

 










Legend :    VFR   Marginal VFR   IFR   Intensive IFR   Very Intensive IFR
Visi :
Ceiling :
>= 8 km
>= 3000ft
5 to 8 km
1000 to 3000 ft
1500m to 5 km
500 to 1000 ft
800 to 1500m
200 to 500 ft
< 800m
< 200 ft
Symbols :   Thunderstorms  Fog  Heavy snow  Heavy precipitations  Wind > 20 kt
SIGMETs :     Misc.  Thunderstorms  Icing  Turbulence  Mountain Waves  Volcanic Ashes







- Airport Elevation : 1202 ft
- IATA code : IGS


ETSI - Ingolstadt

CURRENT METAR :
  • 232320Z AUTO 19001KT //// // ////// 00/00 Q1016 ///

EXPIRED METARs :
  • 232220Z 00000KT 9999 FEW090 01/01 Q1016 BLU+
  • 232120Z VRB02KT 9999 FEW090 01/01 Q1016 BLU+

TAF COR TAF ETSI
Valid from the 23 at 18:00 until the 24 at 03:00 UTC


231742Z 2318/2403 VRB03KT 9999 NSW SCT060
PROB30 2318/2320 05002KT 1200 BCFG FEW090 SCT300 CANCEL 1800
No reported NOTAMs for that airfield.



MET'MAP, your aeronautical weather chart ! - Copyright ORBIFLY December 2007 - Disclaimer

ORBIFLY MET'MAP TEAM :

Programming & Development : Alexandra Zaïnal
Concept & Development : Baudouin d'Aumeries
Co-Development & Prog : Marc-Olivier Méhu
Technical & hardware support : Manuel Goepfert

Contact : metmap@orbifly.com




SOURCES & CREDITS :

   NOAA